Other Surface Observations
Issued by NWS

Home | Current Version | Previous Version | Text Only | Print | Product List | Glossary On
Versions: 1 2 3 4 5 6 7 8 9 10 11 12 13 14 15 16 17 18 19 20 21 22 23 24 25 26 27 28 29 30 31 32 33 34 35 36 37 38 39 40 41 42 43 44 45 46 47 48 49 50
000
SXUS52 KTAE 272318
OSOTAE
OSOTAE
North Florida/South Alabama/Southwest Georgia Weather Roundup
National Weather Service Tallahassee Florida
700 PM EDT WED AUG 27 2014

Note: "fair" indicates few or no clouds below 12,000 feet with no
significant weather and/or obstructions to visibility.

!FLZ017-115-028-034-025-280000
...North Florida...

CITY           SKY/WX    TMP DP  RH WIND       PRES   REMARKS
TALLAHASSEE    MOSUNNY   93  59  31 N7        29.96S HX  92
APALACHICOLA   MOSUNNY   86  69  56 SE7       29.96S HX  90
PERRY          SUNNY     88  59  37 N5        29.97S
CROSS CITY       N/A     89  64  43 N7        29.95F HX  90
HOMERVILLE     FAIR      91  59  33 CALM      29.97S HX  90
JACKSONVILLE   SUNNY     81  64  56 E10       29.98R
$$

!FLZ112-006-005-002-011-280000
...Florida Panhandle...

CITY           SKY/WX    TMP DP  RH WIND       PRES   REMARKS
MARIANNA       MOSUNNY   91  64  40 NE9       29.95F HX  92
BONIFAY        FAIR      86  73  65 CALM      29.97S HX  93
PANAMA CITY NW FAIR      87  70  56 S9        29.95S HX  92
TYNDALL AFB    SUNNY     86  72  63 SW9       29.98S HX  92
TYND DRONE APT FAIR      85  72  65 SW6       29.96S HX  90
DE FUNIAK SPR  FAIR      89  64  43 N3        29.98S
EGLIN AFB      PTSUNNY   86  70  59 S7        29.97S HX  90
DESTIN         MOSUNNY   87  70  56 VRB5      29.97S HX  92
HURLBURT       SUNNY     86  65  49 SW5       29.96F
CRESTVIEW      MOSUNNY   88  67  49 E3        29.98F HX  91
PENSACOLA      MOSUNNY   85  68  56 S9        29.97F
$$

!ALZ063-066-280000
...South Alabama...

CITY           SKY/WX    TMP DP  RH WIND       PRES   REMARKS
DOTHAN         SUNNY     90  60  36 N7        30.01S
OZARK CAIRNS   SUNNY     91  60  35 NE8       29.98S HX  90
FT RUCKER HELI SUNNY     91  61  36 NE6       29.97S HX  91
RUCKER HELI 3  FAIR      90  61  37 N7        30.01S HX  90
RUCKER HELI 2  FAIR      91  59  33 N12       29.98S HX  90
FLORALA APT    SUNNY     91  61  36 N6        29.99F HX  91
ANDALUSIA      SUNNY     94  62  34 NE6       29.98S HX  94
TROY           SUNNY     89  62  40 N9        30.01S
EUFALA         FAIR      91  56  30 CALM      29.98S
MOBILE         MOSUNNY   79  74  84 SW6       29.99S
$$

!GAZ120>161-280000
...Southwest and South Central Georgia...

CITY           SKY/WX    TMP DP  RH WIND       PRES   REMARKS
THOMASVILLE    FAIR      90  61  37 E5        29.99S
BAINBRIDGE     SUNNY     95  63  34 N7        29.97S HX  96
MOODY AFB      SUNNY     88  59  37 N5        29.97F
VALDOSTA       SUNNY     88  59  37 N7        29.97S
MOULTRIE       SUNNY     90  59  35 NE3       29.98S
BLAKELY        MOSUNNY   91  59  33 NE3         N/A  HX  90
ALBANY         SUNNY     89  56  32 E7        29.99S
TIFTON         FAIR      89  50  26 N6        29.98S
FITZGERALD     FAIR      90  48  23 N6        30.00F
CORDELE        FAIR      92  52  26 NE5       29.99S
AMERICUS       FAIR      90  55  31 NE8       30.00F
$$

!GMZ750-755-770-775-280000
...Coastal and Buoy Obs...

STATION/POSITION TIME  TEMP    WIND        PRES    VSBY  WAVE
                       AIR SEA DIR/SP/G                  HT/PER
                 (UTC) (F)     (DEG/KT/KT) (MB)    (MI)  (FT/S)
KEATON BEACH     2300   88      20/  4/  6 1014.6F
CEDAR KEY        2300   87      60/  7/  8 1014.6S
C TOWER          2300   84     120/  7/  8 1014.7F
APALACHICOLA BUO 2300   84 87   50/ 10/ 12 1014.6F         3/ 5
PANAMA CITY BUOY 2151   84 87   80/ 10/ 12 1014.7F         4/ 6
MOBILE BUOY      2158   85 86  110/ 12/ 14 1014.9F
ORANGE BCH AL BU 2300   84 86  150/ 10/ 12 1015.0F         3/ 6
$$



USA.gov is the U.S. government's official web portal to all federal, state and local government web resources and services.